Jackson, KY

6:15 PM EDT on July 25, 2017 (GMT -0400)
Carroll

Weather History for KJKL - July, 2012

Change the Weather History Date:

Tuesday, July 24, 2012

  Actual Average Record
Temperature  
Mean Temperature 75 °F 75 °F  
Max Temperature 82 °F 85 °F 93 °F (1986)
Min Temperature 67 °F 66 °F 56 °F (2008)
Degree Days  
Heating Degree Days 0 0  
Month to date heating degree days 0 0  
Since 1 June heating degree days 12 12  
Since 1 July heating degree days 0 0  
Cooling Degree Days 10 10  
Month to date cooling degree days 321 246  
Year to date cooling degree days 825 605  
Since 1 June cooling degree days 574 469  
Growing Degree Days 23 (Base 50)    
Moisture  
Dew Point 70 °F    
Average Humidity 86    
Maximum Humidity 97    
Minimum Humidity 74    
Precipitation  
Precipitation 0.68 in 0.16 in 0.68 in (2012)
Month to date precipitation 6.74 3.60  
Year to date precipitation 28.35 28.81  
Snow  
Snow 0.00 in 0.00 in - ()
Month to date snowfall 0.0 0.0  
Since 1 June snowfall 0.0 0.0  
Since 1 July snowfall 0.0 0.0  
Snow Depth 0.00 in    
Sea Level Pressure  
Sea Level Pressure 30.03 in    
Wind  
Wind Speed 3 mph (ESE)    
Max Wind Speed 10 mph    
Max Gust Speed 21 mph    
Visibility 6 miles    
Events Fog , Rain , Thunderstorm    
T = Trace of Precipitation, MM = Missing Value Source: NWS Daily Summary

Daily Weather History Graph

Daily Weather History Graph

Search for Another Location

Airport or City:

Trip Planner

Search our weather history database for the weather conditions in past years. The results will help you decide how hot, cold, wet, or windy it might be!

Date:

Astronomy

Jul. 24, 2012 Rise Set
Actual Time 6:31 AM EDT 8:48 PM EDT
Civil Twilight 6:01 AM EDT 9:17 PM EDT
Nautical Twilight 5:24 AM EDT 9:53 PM EDT
Astronomical Twilight 4:45 AM EDT 10:33 PM EDT
Moon 12:18 PM EDT (7/24) 11:44 PM EDT (7/24)
Length of Visible Light 15h 16m
Length of Day
14h 17m
Waxing Crescent, 31% of the Moon is Illuminated
Jul 24
Waxing Crescent
Jul 26
First Quarter
Aug 1
Full
Aug 9
Last Quarter
Aug 17
New

Hourly Weather History & Observations

Time (EDT) Temp. Heat Index Dew Point Humidity Pressure Visibility Wind Dir Wind Speed Gust Speed Precip Events Conditions
12:53 AM 78.1 °F - 71.1 °F 79% 30.04 in 10.0 mi Calm Calm - N/A   Partly Cloudy
1:53 AM 77.0 °F - 71.1 °F 82% 30.04 in 10.0 mi Variable 3.5 mph - N/A   Partly Cloudy
2:53 AM 77.0 °F - 71.1 °F 82% 30.03 in 10.0 mi Variable 3.5 mph - N/A   Partly Cloudy
3:53 AM 77.0 °F - 71.1 °F 82% 30.01 in 10.0 mi Variable 3.5 mph - N/A   Clear
4:53 AM 75.9 °F - 71.1 °F 85% 30.00 in 10.0 mi Variable 3.5 mph - N/A   Clear
5:53 AM 75.9 °F - 70.0 °F 82% 30.01 in 10.0 mi Variable 3.5 mph - N/A   Clear
6:53 AM 75.0 °F - 70.0 °F 84% 30.02 in 10.0 mi Variable 3.5 mph - N/A   Clear
7:53 AM 77.0 °F - 71.1 °F 82% 30.02 in 10.0 mi Variable 3.5 mph - N/A   Clear
8:53 AM 79.0 °F - 71.1 °F 77% 30.02 in 10.0 mi Variable 4.6 mph - N/A   Scattered Clouds
9:53 AM 80.1 °F 83.6 °F 71.1 °F 74% 30.03 in 10.0 mi Variable 5.8 mph - N/A   Mostly Cloudy
10:53 AM 75.0 °F - 72.0 °F 90% 30.05 in 2.5 mi Variable 5.8 mph - 0.02 in Rain Rain
11:03 AM 75.2 °F - 71.6 °F 89% 30.09 in 8.0 mi West 4.6 mph - 0.00 in Rain Light Rain
11:51 AM 75.2 °F - 73.4 °F 94% 30.06 in 2.5 mi Calm Calm - 0.02 in Rain Light Rain
11:53 AM 75.0 °F - 73.9 °F 96% 30.02 in 1.8 mi Calm Calm - 0.02 in Rain Light Rain
12:00 PM 75.2 °F - 73.4 °F 94% 30.06 in 1.2 mi Calm Calm - 0.00 in Rain Light Rain
12:05 PM 75.2 °F - 73.4 °F 94% 30.06 in 2.0 mi Calm Calm - 0.00 in Rain Light Rain
12:10 PM 75.2 °F - 73.4 °F 94% 30.07 in 2.5 mi Calm Calm - 0.00 in Rain Light Rain
12:19 PM 75.2 °F - 73.4 °F 94% 30.07 in 4.0 mi Variable 3.5 mph - 0.00 in Rain Light Rain
12:53 PM 75.9 °F - 73.9 °F 94% 30.02 in 8.0 mi Calm Calm - 0.00 in   Clear
1:53 PM 80.1 °F 85.1 °F 75.0 °F 85% 29.99 in 10.0 mi Calm Calm - N/A   Clear
2:35 PM 80.6 °F 86.2 °F 75.2 °F 84% 30.06 in 10.0 mi Calm Calm - N/A Thunderstorm Overcast
2:43 PM 78.8 °F - 73.4 °F 83% 30.08 in 1.8 mi NE 10.4 mph 17.3 mph N/A Thunderstorm Overcast
2:46 PM 73.4 °F - 71.6 °F 94% 30.09 in 0.8 mi NE 8.1 mph 17.3 mph 0.05 in Rain , Thunderstorm Heavy Thunderstorms and Rain
2:51 PM 69.8 °F - 68.0 °F 94% 30.08 in 0.2 mi NE 8.1 mph 17.3 mph 0.32 in Fog , Rain , Thunderstorm Heavy Thunderstorms and Rain
2:53 PM 68.0 °F - 66.9 °F 96% 30.03 in 0.2 mi Variable 5.8 mph - 0.43 in Fog , Rain , Thunderstorm Heavy Thunderstorms and Rain
3:01 PM 68.0 °F - 66.2 °F 94% 30.07 in 0.5 mi Variable 3.5 mph - 0.19 in Fog , Rain , Thunderstorm Heavy Thunderstorms and Rain
3:07 PM 68.0 °F - 66.2 °F 94% 30.05 in 1.8 mi Calm Calm - 0.21 in Rain , Thunderstorm Light Thunderstorms and Rain
3:11 PM 68.0 °F - 66.2 °F 94% 30.06 in 3.0 mi Variable 3.5 mph - 0.21 in Rain , Thunderstorm Light Thunderstorms and Rain
3:24 PM 68.0 °F - 66.2 °F 94% 30.07 in 10.0 mi Calm Calm - 0.21 in Thunderstorm Thunderstorm
3:31 PM 68.0 °F - 66.2 °F 94% 30.07 in 6.0 mi Calm Calm - 0.21 in Rain , Thunderstorm Light Thunderstorms and Rain
3:48 PM 68.0 °F - 66.2 °F 94% 30.06 in 10.0 mi ESE 4.6 mph - 0.21 in   Overcast
3:53 PM 66.9 °F - 66.0 °F 97% 30.02 in 10.0 mi Variable 3.5 mph - 0.21 in   Overcast
4:15 PM 68.0 °F - 66.2 °F 94% 30.05 in 1.0 mi Calm Calm - N/A   Mostly Cloudy
4:22 PM 66.2 °F - 66.2 °F 100% 30.04 in 0.5 mi Calm Calm - N/A Fog Fog
4:33 PM 68.0 °F - 66.2 °F 94% 30.04 in 1.0 mi Calm Calm - N/A   Mostly Cloudy
4:37 PM 68.0 °F - 66.2 °F 94% 30.03 in 2.0 mi Calm Calm - N/A   Overcast
4:45 PM 68.0 °F - 66.2 °F 94% 30.03 in 8.0 mi Calm Calm - N/A   Mostly Cloudy
4:53 PM 69.1 °F - 68.0 °F 96% 29.99 in 5.0 mi South 3.5 mph - N/A   Mostly Cloudy
5:38 PM 69.8 °F - 68.0 °F 94% 30.01 in 10.0 mi Calm Calm - N/A   Mostly Cloudy
5:53 PM 71.1 °F - 68.0 °F 90% 29.96 in 10.0 mi SSE 3.5 mph - N/A   Scattered Clouds
6:53 PM 73.9 °F - 70.0 °F 87% 29.93 in 10.0 mi Calm Calm - N/A   Clear
7:53 PM 73.0 °F - 70.0 °F 90% 29.94 in 10.0 mi Calm Calm - N/A   Clear
8:53 PM 72.0 °F - 69.1 °F 91% 29.93 in 10.0 mi Calm Calm - N/A   Clear
9:53 PM 72.0 °F - 69.1 °F 91% 29.92 in 10.0 mi Calm Calm - N/A   Clear
10:53 PM 73.0 °F - 69.1 °F 87% 29.93 in 10.0 mi Calm Calm - N/A   Clear
11:53 PM 71.1 °F - 70.0 °F 96% 29.94 in 10.0 mi Calm Calm - N/A   Clear